World > North America > United States > Mississippi

Hourly Cedar Hill, MS Regional Weather

Feedback E-mail the Weather

Quick WX

Cedar Hill, MS Weather Maps

°F °C°F °C
Cedar Hill Weather Map
UTC Time: 7/2/2022, 05:27
Your Time:

Cedar Hill, MS Regional Weather

Expires:202207020600;;532859
ASUS44 KJAN 020510
RWRMS 

MISSISSIPPI HOURLY WEATHER ROUNDUP
NATIONAL WEATHER SERVICE JACKSON MS
1200 AM CDT SAT JUL 02 2022

NOTE: "FAIR: INDICATES FEW OR NO CLOUDS BELOW 12,000 FEET WITH NO
SIGNIFICANT WEATHER AND/OR OBSTRUCTIONS TO VISIBILITY.


MSZ001>002-007>008-010>013-018>021-025>028-034>036-020600-
NORTHWEST MISSISSIPPI
  
CITY           SKY/WX    TMP DP  RH WIND       PRES   REMARKS
BATESVILLE     FAIR      73  72  94 CALM      29.99S                  
CLARKSDALE     CLEAR     77  77 100 S6        29.99F                  
CLEVELAND      FAIR      73  73 100 S3        30.00S                  
GREENWOOD      PTCLDY    76  72  87 S3        30.01S                  
GREENVILLE     CLEAR     74  72  93 S6        30.00R                  
OLIVE BRANCH   CLEAR     77  73  88 S9        29.98S                  
OXFORD         CLEAR     75  72  88 VRB5      30.02S                  
TUNICA         CLEAR     78  72  81 S9        29.98S                  
WINONA         FAIR      73  73  99 CALM      30.01S                  
$$


SKY/WX - Weather  TMP - Temperature  DP - Dew Point  RH - Humidity
WIND - Wind Direction/Speed PRES - Barometric Pressure VSB - Visibility
WCI - Wind Chill Index E13G22 Wind - East Wind 13 mph/Gusts of 22 mph

Trending Headlines

Cedar Hill Radar Loop



Cedar Hill Quick Facts


National Two Day Weather Forecast


E-mail the Cedar Hill Weather Forecast

Voice your opinion or tell us about page issues...